Waarnemingen

Advertentie
Mijn weer
Stornoway, Groot Brittannië (3026): temperatuur & dauwpunt: 17.05.2018 18:00:00 - 23.05.2018 18:00:00 (BST)Stornoway, Groot Brittannië (3026): temperatuur -20cm & temperatuur -100cm: 17.05.2018 18:00:00 - 23.05.2018 18:00:00 (BST)Stornoway, Groot Brittannië (3026): windsnelheid & windstoten: 17.05.2018 18:00:00 - 23.05.2018 18:00:00 (BST)Stornoway, Groot Brittannië (3026): windrichting: 17.05.2018 18:00:00 - 23.05.2018 18:00:00 (BST)Stornoway, Groot Brittannië (3026): luchtdruk: 17.05.2018 18:00:00 - 23.05.2018 18:00:00 (BST)Stornoway, Groot Brittannië (3026): zicht: 17.05.2018 18:00:00 - 23.05.2018 18:00:00 (BST)Stornoway, Groot Brittannië (3026): Zonneschijnduur: 17.05.2018 18:00:00 - 23.05.2018 18:00:00 (BST)Stornoway, Groot Brittannië (3026): neerslag: 17.05.2018 18:00:00 - 23.05.2018 18:00:00 (BST)
Datum & Tijd tt [°C] td [°C] tt -20cm [°C] tt -100cm [°C] ff [km/u] ff [kn] fx [km/u] fx [kn] dd ppp [hPa] vv [km] sd [min] rr [mm]
23.05.2018 18:00:00 - - - - - - - - - - - - -
23.05.2018 17:00:00 13,9 8,8 - - 15 8 - - ZZO 1026,3 35 60 0,0
23.05.2018 16:00:00 14,1 8,8 - - 16 9 - - ZZO 1026,5 30 60 0,0
23.05.2018 15:00:00 13,4 9,3 - - 15 8 - - ZZO 1026,7 35 60 0,0
23.05.2018 14:00:00 13,1 9,0 - - 16 9 - - ZZO 1027,0 20 60 0,0
23.05.2018 13:00:00 12,7 8,7 - - 21 11 - - ZZO 1027,0 23 60 0,0
23.05.2018 12:00:00 12,2 8,4 - - 18 10 - - ZZO 1027,1 30 60 0,0
23.05.2018 11:00:00 10,7 8,2 - - 16 9 - - ZZO 1027,2 29 24 0,0
23.05.2018 10:00:00 10,6 8,1 10,0 9,0 16 9 - - ZZO 1027,0 26 60 0,0
23.05.2018 09:00:00 10,5 7,7 - - 11 6 - - ZZO 1026,8 35 42 0,0
23.05.2018 08:00:00 9,1 7,4 - - 9 5 - - ZZO 1026,5 45 6 0,0
23.05.2018 07:00:00 8,7 7,6 - - 8 4 - - Z 1026,4 30 18 0,0
23.05.2018 06:00:00 6,6 5,2 - - 2 1 - - ZZW 1025,9 30 0 0,0
23.05.2018 05:00:00 7,6 6,4 - - 11 6 - - ZZO 1025,8 30 0 0,0
23.05.2018 04:00:00 8,0 6,6 - - 11 6 - - ZO 1025,8 29 0 0,0
23.05.2018 03:00:00 7,7 6,4 - - 9 5 - - ZO 1026,0 23 0 0,0
23.05.2018 02:00:00 6,7 5,2 - - 2 1 - - ZZW 1026,0 26 0 0,0
23.05.2018 01:00:00 8,0 6,5 - - 16 9 - - ZO 1025,8 21 - 0,0
23.05.2018 00:00:00 8,2 6,3 - - 16 9 - - ZO 1025,8 35 0 0,0
22.05.2018 23:00:00 8,4 6,3 - - 16 9 - - ZO 1026,0 40 0 0,0
22.05.2018 22:00:00 8,9 6,4 - - 15 8 - - OZO 1025,9 40 0 0,0
22.05.2018 21:00:00 9,4 6,4 - - 15 8 - - OZO 1025,8 35 24 0,0
22.05.2018 20:00:00 11,0 7,2 - - 15 8 - - O 1025,6 40 36 0,0
22.05.2018 19:00:00 11,8 7,8 - - 22 12 - - O 1025,4 30 48 0,0
22.05.2018 18:00:00 10,7 7,2 - - 21 11 - - ONO 1025,7 30 0 0,0
22.05.2018 17:00:00 10,3 6,8 - - 26 14 - - ONO 1025,9 35 0 0,0
22.05.2018 16:00:00 9,9 6,7 - - 24 13 - - ONO 1026,3 24 0 0,0
22.05.2018 15:00:00 9,7 5,6 - - 28 15 - - ONO 1026,7 30 12 0,0
22.05.2018 14:00:00 10,4 6,4 - - 26 14 - - NO 1027,0 22 60 0,0
22.05.2018 13:00:00 10,3 5,5 - - 22 12 - - NO 1027,1 29 54 0,0
22.05.2018 12:00:00 10,1 5,5 - - 18 10 - - ONO 1026,6 28 60 0,0
22.05.2018 11:00:00 10,0 5,9 - - 22 12 - - ONO 1027,0 27 60 0,0
22.05.2018 10:00:00 9,1 5,6 10,0 9,0 21 11 - - ONO 1027,3 30 60 0,0
22.05.2018 09:00:00 9,1 5,8 - - 22 12 - - ONO 1027,4 30 54 0,0
22.05.2018 08:00:00 8,3 5,2 - - 18 10 - - ONO 1027,7 40 60 0,0
22.05.2018 07:00:00 7,7 5,3 - - 16 9 - - ONO 1027,3 28 54 0,0
22.05.2018 06:00:00 6,6 4,9 - - 15 8 - - ONO 1027,3 50 6 0,2
22.05.2018 05:00:00 6,3 4,9 - - 13 7 - - ONO 1027,3 50 0 0,0
22.05.2018 04:00:00 5,7 5,3 - - 11 6 - - NO 1027,4 50 0 0,0
22.05.2018 03:00:00 4,0 3,6 - - 4 2 - - NNW 1027,3 45 0 0,0
22.05.2018 02:00:00 3,7 3,3 - - 5 3 - - NNW 1027,3 50 0 0,0
22.05.2018 01:00:00 3,1 2,5 - - 5 3 - - NW 1027,0 45 - 0,0
22.05.2018 00:00:00 3,8 2,9 - - 4 2 - - NNW 1026,5 40 0 0,0
21.05.2018 23:00:00 6,0 4,5 - - 5 3 - - NO 1026,3 50 0 0,0
21.05.2018 22:00:00 6,8 4,9 - - 8 4 - - ONO 1025,9 50 24 0,0
21.05.2018 21:00:00 7,6 4,7 - - 5 3 - - NO 1025,4 45 48 0,0
21.05.2018 20:00:00 8,0 5,4 - - 9 5 - - O 1024,7 40 24 0,0
21.05.2018 19:00:00 7,5 4,2 - - 9 5 - - NO 1024,5 50 6 0,0
21.05.2018 18:00:00 7,6 5,5 - - 11 6 - - NO 1023,9 50 0 0,0
21.05.2018 17:00:00 7,5 5,5 - - 13 7 - - NO 1023,3 40 0 0,2
21.05.2018 16:00:00 7,3 5,5 - - 13 7 - - N 1023,0 14 0 1,0
21.05.2018 15:00:00 7,2 5,6 - - 13 7 - - N 1022,5 19 0 1,6
21.05.2018 14:00:00 7,0 4,9 - - 18 10 - - N 1021,9 18 0 1,4
21.05.2018 13:00:00 7,5 6,2 - - 16 9 - - NNO 1021,1 13 0 1,0
21.05.2018 12:00:00 7,5 6,1 - - 18 10 - - NNO 1020,7 14 0 1,4
21.05.2018 11:00:00 7,6 6,5 - - 15 8 - - N 1020,3 9 0 2,2
21.05.2018 10:00:00 7,6 6,5 10,2 8,9 16 9 - - N 1019,9 9 0 1,6
21.05.2018 09:00:00 7,4 6,4 - - 18 10 - - N 1019,5 12 0 2,0
21.05.2018 08:00:00 7,4 6,7 - - 21 11 - - N 1018,8 8 0 1,0
21.05.2018 07:00:00 6,9 6,0 - - 18 10 - - N 1018,6 9 0 1,2
21.05.2018 06:00:00 6,9 6,2 - - 21 11 - - N 1018,0 8 0 0,4
21.05.2018 05:00:00 7,7 7,0 - - 18 10 - - N 1017,8 7 0 0,2
21.05.2018 04:00:00 7,8 7,0 - - 13 7 - - N 1017,6 12 0 0,6
21.05.2018 03:00:00 8,0 7,3 - - 13 7 - - N 1017,4 15 0 0,2
21.05.2018 02:00:00 8,1 7,7 - - 13 7 - - N 1017,2 9 0 0,6
21.05.2018 01:00:00 8,3 8,0 - - 9 5 - - NNO 1017,5 6 - 0,2
21.05.2018 00:00:00 8,2 7,9 - - 11 6 - - NNO 1017,1 7 0 0,2
20.05.2018 23:00:00 8,5 8,1 - - 9 5 - - N 1016,8 6 0 0,8
20.05.2018 22:00:00 8,9 8,6 - - 13 7 - - NNW 1016,3 4,2 0 0,4
20.05.2018 21:00:00 9,3 8,9 - - 13 7 - - NNW 1015,4 3,0 0 0,6
20.05.2018 20:00:00 9,6 9,2 - - 5 3 - - N 1014,8 4,5 0 0,4
20.05.2018 19:00:00 10,2 9,5 - - 13 7 - - NW 1014,0 6 0 0,0
20.05.2018 18:00:00 11,6 10,9 - - 26 14 - - ZW 1013,6 10 0 0,2
20.05.2018 17:00:00 11,6 11,1 - - 34 18 54 29 ZZW 1013,1 15 0 0,2
20.05.2018 16:00:00 11,8 11,3 - - 34 18 52 28 ZZW 1012,4 5 0 1,0
20.05.2018 15:00:00 11,7 11,1 - - 35 19 59 32 ZZW 1012,1 7 0 0,2
20.05.2018 14:00:00 11,6 11,1 - - 37 20 57 31 ZZW 1011,8 3,4 0 0,2
20.05.2018 13:00:00 11,3 10,8 - - 39 21 54 29 ZZW 1011,5 5 0 0,2
20.05.2018 12:00:00 11,1 10,5 - - 37 20 54 29 ZZW 1011,4 5 0 0,0
20.05.2018 11:00:00 10,8 10,4 - - 35 19 54 29 Z 1011,3 6 0 0,0
20.05.2018 10:00:00 10,6 10,2 10,2 8,7 35 19 54 29 Z 1011,3 10 0 0,4
20.05.2018 09:00:00 10,3 9,8 - - 37 20 55 30 Z 1011,4 8 0 0,2
20.05.2018 08:00:00 10,3 9,8 - - 35 19 52 28 ZZW 1011,2 7 0 0,0
20.05.2018 07:00:00 10,2 9,7 - - 37 20 46 25 Z 1011,1 9 0 0,2
20.05.2018 06:00:00 10,3 9,9 - - 34 18 57 31 ZZW 1010,6 6 0 0,0
20.05.2018 05:00:00 10,3 9,8 - - 42 23 52 28 Z 1010,1 6 0 0,2
20.05.2018 04:00:00 10,2 9,7 - - 39 21 59 32 Z 1010,2 5 0 0,2
20.05.2018 03:00:00 10,8 10,2 - - 35 19 52 28 ZZW 1010,1 5 0 0,4
20.05.2018 02:00:00 10,6 9,6 - - 35 19 46 25 ZZW 1010,5 8 0 0,2
20.05.2018 01:00:00 10,3 9,2 - - 31 17 52 28 ZZW 1010,7 11 - 0,2
20.05.2018 00:00:00 10,9 9,3 - - 35 19 50 27 ZZW 1011,5 8 0 0,2
19.05.2018 23:00:00 10,7 8,7 - - 29 16 - - ZZW 1011,6 10 0 0,0
19.05.2018 22:00:00 11,2 7,9 - - 26 14 - - Z 1012,0 17 0 0,0
19.05.2018 21:00:00 10,9 7,6 - - 24 13 46 25 Z 1012,2 15 0 0,0
19.05.2018 20:00:00 11,8 7,7 - - 34 18 54 29 ZZW 1012,6 17 0 0,0
19.05.2018 19:00:00 13,5 7,8 - - 42 23 59 32 ZZW 1012,7 25 0 0,0
19.05.2018 18:00:00 14,2 8,1 - - 42 23 61 33 ZZW 1012,9 24 0 0,0
19.05.2018 17:00:00 14,4 8,7 - - 37 20 59 32 ZZW 1013,6 17 0 0,0
19.05.2018 16:00:00 15,1 8,5 - - 42 23 61 33 ZZW 1014,3 18 0 0,0
19.05.2018 15:00:00 14,1 8,1 - - 29 16 - - Z 1015,0 30 42 0,0
19.05.2018 14:00:00 14,0 8,2 - - 28 15 - - Z 1015,3 20 30 0,0
19.05.2018 13:00:00 13,2 7,9 - - 28 15 - - Z 1016,2 26 0 0,0
19.05.2018 12:00:00 12,7 8,0 - - 28 15 - - Z 1016,7 16 0 0,0
19.05.2018 11:00:00 12,3 8,1 - - 34 18 46 25 Z 1017,0 22 0 0,0
19.05.2018 10:00:00 12,0 8,3 10,0 8,7 28 15 - - Z 1017,7 15 0 0,0
19.05.2018 09:00:00 11,7 8,2 - - 29 16 - - Z 1017,9 27 0 0,0
19.05.2018 08:00:00 10,9 8,2 - - 24 13 - - Z 1018,1 27 0 0,0
19.05.2018 07:00:00 10,0 8,3 - - 28 15 - - Z 1018,2 35 0 0,0
19.05.2018 06:00:00 9,4 8,6 - - 24 13 - - Z 1018,6 25 0 0,0
19.05.2018 05:00:00 9,3 8,8 - - 22 12 - - ZZW 1018,8 18 0 0,0
19.05.2018 04:00:00 9,1 8,8 - - 18 10 - - Z 1019,4 10 0 0,0
19.05.2018 03:00:00 9,7 9,3 - - 24 13 - - ZZW 1020,0 15 0 0,0
19.05.2018 02:00:00 9,7 9,1 - - 26 14 - - Z 1020,4 6 0 0,0
19.05.2018 01:00:00 9,6 9,1 - - 18 10 - - ZZW 1020,9 19 - 0,0
19.05.2018 00:00:00 9,3 9,0 - - 24 13 - - Z 1021,0 3,3 0 0,0
18.05.2018 23:00:00 9,2 8,7 - - 24 13 - - Z 1021,3 4,3 0 0,0
18.05.2018 22:00:00 9,5 8,3 - - 18 10 - - Z 1021,8 17 0 0,0
18.05.2018 21:00:00 9,5 8,5 - - 16 9 - - Z 1021,8 13 0 0,0
18.05.2018 20:00:00 9,9 8,8 - - 18 10 - - Z 1021,8 18 0 0,0
18.05.2018 19:00:00 10,6 8,9 - - 22 12 - - ZZW 1021,9 24 0 0,0
18.05.2018 18:00:00 11,4 9,0 - - 24 13 - - ZZW 1021,7 23 0 0,0
18.05.2018 17:00:00 11,4 8,8 - - 26 14 - - ZZW 1021,7 27 0 0,0
18.05.2018 16:00:00 11,8 9,1 - - 28 15 - - ZZW 1021,8 27 0 0,0
18.05.2018 15:00:00 11,2 8,1 - - 28 15 - - ZZW 1021,8 27 0 0,0
18.05.2018 14:00:00 10,3 7,4 - - 31 17 - - Z 1021,8 21 0 0,0
18.05.2018 13:00:00 10,5 7,6 - - 26 14 - - Z 1021,7 26 0 0,0
18.05.2018 12:00:00 10,2 6,6 - - 29 16 - - ZZW 1021,7 27 0 0,0
18.05.2018 11:00:00 9,8 6,2 - - 28 15 - - Z 1022,0 35 0 0,2
18.05.2018 10:00:00 9,3 6,9 10,0 8,7 22 12 - - ZZW 1022,1 15 0 0,6
18.05.2018 09:00:00 9,8 6,1 - - 28 15 - - ZZW 1021,8 12 0 0,0
18.05.2018 08:00:00 10,5 5,0 - - 28 15 - - ZZW 1021,9 40 0 0,0
18.05.2018 07:00:00 10,4 5,1 - - 24 13 - - ZZW 1021,6 40 0 0,0
18.05.2018 06:00:00 9,4 6,2 - - 13 7 - - Z 1021,9 45 0 0,0
18.05.2018 05:00:00 9,4 6,2 - - 18 10 - - Z 1022,0 45 0 0,0
18.05.2018 04:00:00 9,3 6,2 - - 21 11 - - Z 1022,4 45 0 0,0
18.05.2018 03:00:00 9,1 6,6 - - 13 7 - - Z 1023,0 50 0 0,0
18.05.2018 02:00:00 8,9 6,6 - - 15 8 - - ZZO 1023,4 45 0 0,0
18.05.2018 01:00:00 7,8 6,0 - - 9 5 - - Z 1024,2 30 - 0,0
18.05.2018 00:00:00 8,7 5,6 - - 11 6 - - ZZO 1024,8 45 0 0,0
17.05.2018 23:00:00 8,6 6,1 - - 15 8 - - ZZO 1025,4 40 0 0,0
17.05.2018 22:00:00 8,9 5,6 - - 13 7 - - ZZO 1025,7 45 0 0,0
17.05.2018 21:00:00 9,5 6,4 - - 11 6 - - ZZO 1025,8 30 12 0,0
17.05.2018 20:00:00 10,8 5,9 - - 11 6 - - ZZO 1026,2 40 60 0,0
17.05.2018 19:00:00 10,9 5,3 - - 16 9 - - ZZO 1026,4 40 60 0,0
17.05.2018 18:00:00 12,1 5,7 - - 13 7 - - ZZO 1026,6 25 60 0,0

tt = temperatuur
td = dauwpunt
tt -20cm = temperatuur -20cm
tt -100cm = temperatuur -100cm
ff = windsnelheid
fx = windstoten
dd = windrichting
ppp = luchtdruk
vv = zicht
sd = Zonneschijnduur
rr = neerslag

Weerstations in de omgeving